ROA014 SVMC-SVMI

Flight info

Callsign ROA014
Flight time 0h 52m
Altitude 23000
Route ASIBA1 MAU A552 LIXIL DCT PBL DCT ALDAK ALDAK1
Aircraft B737/M-SDE2E3FGHIRWXY/LB1

Departure

Time 2026-04-29 23:24
Airport La Chinita International Airport (SVMC)

Arrival

Time 2026-04-30 00:17
Airport Maiquetía Simón Bolívar International Airport (SVMI)
Time Latitude Longitude Altitude Speed Heading
2026-04-29 23:05 10.55504 -71.72516 215 ft 0 kts 61°
2026-04-29 23:10 10.55501 -71.72521 221 ft 2 kts 58°
2026-04-29 23:10 10.55491 -71.72537 221 ft 3 kts 51°
2026-04-29 23:10 10.55481 -71.72549 218 ft 1 kts 65°
2026-04-29 23:11 10.55478 -71.72557 218 ft 1 kts 90°
2026-04-29 23:11 10.55480 -71.72570 217 ft 2 kts 106°
2026-04-29 23:11 10.55486 -71.72589 217 ft 2 kts 105°
2026-04-29 23:11 10.55487 -71.72599 222 ft 1 kts 82°
2026-04-29 23:12 10.55485 -71.72608 217 ft 1 kts 54°
2026-04-29 23:12 10.55479 -71.72614 217 ft 1 kts 38°
2026-04-29 23:12 10.55472 -71.72619 217 ft 1 kts 30°
2026-04-29 23:12 10.55465 -71.72623 223 ft 1 kts 27°
2026-04-29 23:13 10.55458 -71.72627 216 ft 1 kts 25°
2026-04-29 23:13 10.55457 -71.72627 216 ft 0 kts 25°
2026-04-29 23:15 10.55458 -71.72627 216 ft 0 kts 25°
2026-04-29 23:15 10.55468 -71.72622 224 ft 3 kts 25°
2026-04-29 23:16 10.55500 -71.72611 220 ft 7 kts 20°
2026-04-29 23:16 10.55553 -71.72589 219 ft 10 kts 24°
2026-04-29 23:16 10.55615 -71.72561 217 ft 9 kts 20°
2026-04-29 23:16 10.55666 -71.72597 214 ft 11 kts 293°
2026-04-29 23:17 10.55693 -71.72665 221 ft 3 kts 292°
2026-04-29 23:17 10.55703 -71.72697 225 ft 6 kts 276°
2026-04-29 23:17 10.55684 -71.72743 220 ft 8 kts 224°
2026-04-29 23:17 10.55626 -71.72774 218 ft 10 kts 202°
2026-04-29 23:18 10.55551 -71.72805 218 ft 13 kts 203°
2026-04-29 23:18 10.55457 -71.72845 217 ft 16 kts 202°
2026-04-29 23:18 10.55342 -71.72894 221 ft 19 kts 202°
2026-04-29 23:18 10.55211 -71.72950 217 ft 22 kts 202°
2026-04-29 23:19 10.55078 -71.73007 216 ft 19 kts 203°
2026-04-29 23:19 10.54956 -71.73059 215 ft 19 kts 202°
2026-04-29 23:19 10.54839 -71.73108 220 ft 18 kts 202°
2026-04-29 23:19 10.54729 -71.73160 214 ft 17 kts 215°
2026-04-29 23:20 10.54643 -71.73239 221 ft 17 kts 223°
2026-04-29 23:20 10.54572 -71.73321 219 ft 12 kts 251°
2026-04-29 23:20 10.54580 -71.73352 220 ft 0 kts 297°
2026-04-29 23:22 10.54581 -71.73355 222 ft 1 kts 293°
2026-04-29 23:22 10.54589 -71.73374 220 ft 5 kts 293°
2026-04-29 23:22 10.54603 -71.73401 220 ft 2 kts 311°
2026-04-29 23:22 10.54623 -71.73401 220 ft 4 kts 17°
2026-04-29 23:23 10.54628 -71.73398 220 ft 0 kts 21°
2026-04-29 23:23 10.54653 -71.73388 220 ft 11 kts 23°
2026-04-29 23:23 10.54876 -71.73293 220 ft 71 kts 22°
2026-04-29 23:23 10.55548 -71.73007 223 ft 136 kts 22°
2026-04-29 23:24 10.56537 -71.72618 600 ft 155 kts 18°
2026-04-29 23:24 10.57512 -71.72288 1431 ft 144 kts 21°
2026-04-29 23:24 10.58443 -71.71931 2098 ft 147 kts 24°
2026-04-29 23:24 10.59403 -71.71445 2524 ft 163 kts 31°
2026-04-29 23:25 10.60335 -71.70672 2890 ft 182 kts 52°
2026-04-29 23:25 10.60801 -71.69492 3616 ft 180 kts 85°
2026-04-29 23:25 10.60701 -71.68269 4469 ft 175 kts 92°
2026-04-29 23:25 10.60674 -71.66937 4715 ft 202 kts 86°
2026-04-29 23:26 10.60827 -71.65439 4956 ft 225 kts 83°
2026-04-29 23:26 10.61055 -71.63774 5179 ft 252 kts 82°
2026-04-29 23:26 10.61309 -71.61950 5678 ft 267 kts 83°
2026-04-29 23:26 10.61565 -71.60103 6485 ft 269 kts 83°
2026-04-29 23:27 10.61823 -71.58201 7239 ft 273 kts 83°
2026-04-29 23:27 10.62081 -71.56283 8095 ft 276 kts 84°
2026-04-29 23:27 10.62266 -71.54884 8645 ft 280 kts 84°
2026-04-29 23:27 10.62525 -71.52910 9488 ft 285 kts 84°
2026-04-29 23:28 10.62790 -71.50891 10226 ft 293 kts 84°
2026-04-29 23:28 10.63066 -71.48758 10501 ft 317 kts 84°
2026-04-29 23:28 10.63359 -71.46488 11038 ft 328 kts 84°
2026-04-29 23:28 10.63660 -71.44173 11793 ft 332 kts 84°
2026-04-29 23:29 10.63959 -71.41870 12612 ft 334 kts 84°
2026-04-29 23:29 10.64264 -71.39514 13383 ft 339 kts 84°
2026-04-29 23:29 10.64573 -71.37124 14106 ft 342 kts 84°
2026-04-29 23:29 10.64885 -71.34705 14760 ft 348 kts 84°
2026-04-29 23:30 10.65200 -71.32256 15481 ft 351 kts 84°
2026-04-29 23:30 10.65519 -71.29777 16101 ft 357 kts 83°
2026-04-29 23:30 10.65844 -71.27254 16740 ft 363 kts 83°
2026-04-29 23:30 10.66172 -71.24701 17430 ft 366 kts 84°
2026-04-29 23:31 10.66504 -71.22118 18075 ft 371 kts 84°
2026-04-29 23:31 10.66841 -71.19493 18615 ft 376 kts 84°
2026-04-29 23:31 10.67176 -71.16881 19195 ft 379 kts 84°
2026-04-29 23:31 10.67518 -71.14211 19795 ft 383 kts 84°
2026-04-29 23:32 10.67864 -71.11517 20369 ft 386 kts 84°
2026-04-29 23:32 10.68212 -71.08796 20931 ft 390 kts 84°
2026-04-29 23:32 10.68564 -71.06048 21495 ft 393 kts 84°
2026-04-29 23:32 10.68839 -71.03283 22132 ft 393 kts 90°
2026-04-29 23:33 10.68766 -71.00510 22722 ft 393 kts 95°
2026-04-29 23:33 10.68579 -70.97731 22829 ft 394 kts 96°
2026-04-29 23:33 10.68362 -70.95003 22846 ft 391 kts 96°
2026-04-29 23:33 10.68148 -70.92259 22849 ft 388 kts 96°
2026-04-29 23:34 10.67948 -70.89516 22865 ft 390 kts 95°
2026-04-29 23:34 10.67761 -70.86766 22868 ft 390 kts 95°
2026-04-29 23:34 10.67583 -70.84012 22862 ft 391 kts 95°
2026-04-29 23:34 10.67411 -70.81252 22868 ft 391 kts 95°
2026-04-29 23:35 10.67241 -70.78491 22872 ft 392 kts 95°
2026-04-29 23:35 10.67073 -70.75726 22867 ft 392 kts 95°
2026-04-29 23:35 10.66907 -70.72999 22865 ft 392 kts 95°
2026-04-29 23:35 10.66739 -70.70239 22866 ft 391 kts 95°
2026-04-29 23:36 10.66570 -70.67480 22867 ft 391 kts 95°
2026-04-29 23:36 10.66402 -70.64728 22870 ft 390 kts 95°
2026-04-29 23:36 10.66233 -70.61975 22872 ft 390 kts 95°
2026-04-29 23:36 10.66064 -70.59230 22874 ft 389 kts 95°
2026-04-29 23:37 10.65895 -70.56490 22875 ft 389 kts 95°
2026-04-29 23:37 10.65726 -70.53744 22873 ft 388 kts 95°
2026-04-29 23:37 10.65557 -70.51006 22879 ft 388 kts 95°
2026-04-29 23:37 10.65388 -70.48269 22877 ft 388 kts 95°
2026-04-29 23:38 10.65220 -70.45567 22878 ft 388 kts 95°
2026-04-29 23:38 10.65050 -70.42823 22884 ft 388 kts 95°
2026-04-29 23:38 10.64880 -70.40083 22878 ft 388 kts 95°
2026-04-29 23:38 10.64704 -70.37345 22879 ft 388 kts 95°
2026-04-29 23:39 10.64525 -70.34607 22882 ft 388 kts 95°
2026-04-29 23:39 10.64345 -70.31868 22877 ft 388 kts 95°
2026-04-29 23:39 10.64164 -70.29132 22880 ft 388 kts 95°
2026-04-29 23:39 10.63983 -70.26390 22879 ft 388 kts 95°
2026-04-29 23:40 10.63805 -70.23690 22878 ft 388 kts 95°
2026-04-29 23:40 10.63625 -70.20954 22887 ft 388 kts 95°
2026-04-29 23:40 10.63444 -70.18219 22885 ft 388 kts 95°
2026-04-29 23:40 10.63264 -70.15485 22879 ft 388 kts 95°
2026-04-29 23:41 10.63084 -70.12749 22885 ft 388 kts 95°
2026-04-29 23:41 10.62902 -70.10014 22882 ft 388 kts 95°
2026-04-29 23:41 10.62721 -70.07273 22877 ft 388 kts 95°
2026-04-29 23:41 10.62540 -70.04536 22878 ft 388 kts 95°
2026-04-29 23:42 10.62358 -70.01797 22885 ft 388 kts 95°
2026-04-29 23:42 10.62176 -69.99062 22886 ft 388 kts 95°
2026-04-29 23:42 10.61996 -69.96361 22883 ft 388 kts 95°
2026-04-29 23:42 10.61814 -69.93625 22882 ft 388 kts 95°
2026-04-29 23:43 10.61632 -69.90887 22886 ft 388 kts 96°
2026-04-29 23:43 10.61449 -69.88152 22892 ft 388 kts 95°
2026-04-29 23:43 10.61266 -69.85420 22891 ft 387 kts 95°
2026-04-29 23:43 10.61083 -69.82690 22896 ft 387 kts 96°
2026-04-29 23:44 10.60899 -69.79958 22895 ft 387 kts 96°
2026-04-29 23:44 10.60716 -69.77228 22900 ft 387 kts 96°
2026-04-29 23:44 10.60535 -69.74532 22900 ft 388 kts 96°
2026-04-29 23:44 10.60350 -69.71793 22898 ft 388 kts 96°
2026-04-29 23:45 10.60166 -69.69057 22897 ft 388 kts 96°
2026-04-29 23:45 10.59981 -69.66319 22898 ft 388 kts 96°
2026-04-29 23:45 10.59796 -69.63578 22897 ft 388 kts 96°
2026-04-29 23:45 10.59610 -69.60845 22900 ft 388 kts 96°
2026-04-29 23:46 10.59425 -69.58109 22897 ft 388 kts 96°
2026-04-29 23:46 10.59240 -69.55375 22906 ft 387 kts 96°
2026-04-29 23:46 10.59054 -69.52642 22915 ft 387 kts 96°
2026-04-29 23:46 10.58869 -69.49913 22916 ft 387 kts 96°
2026-04-29 23:47 10.58674 -69.47181 22910 ft 387 kts 96°
2026-04-29 23:47 10.58458 -69.44488 22907 ft 387 kts 96°
2026-04-29 23:47 10.58231 -69.41767 22914 ft 387 kts 97°
2026-04-29 23:47 10.58002 -69.39042 22910 ft 387 kts 97°
2026-04-29 23:48 10.57774 -69.36316 22914 ft 387 kts 97°
2026-04-29 23:48 10.57546 -69.33587 22913 ft 387 kts 96°
2026-04-29 23:48 10.57320 -69.30862 22912 ft 387 kts 96°
2026-04-29 23:48 10.57095 -69.28136 22917 ft 387 kts 96°
2026-04-29 23:49 10.56871 -69.25414 22912 ft 387 kts 96°
2026-04-29 23:49 10.56647 -69.22692 22913 ft 387 kts 96°
2026-04-29 23:49 10.56425 -69.20006 22915 ft 386 kts 96°
2026-04-29 23:49 10.56200 -69.17288 22921 ft 386 kts 96°
2026-04-29 23:50 10.55975 -69.14564 22916 ft 386 kts 96°
2026-04-29 23:50 10.55750 -69.11844 22921 ft 387 kts 96°
2026-04-29 23:50 10.55299 -69.06404 22921 ft 387 kts 96°
2026-04-29 23:51 10.55072 -69.03674 22921 ft 387 kts 96°
2026-04-29 23:51 10.54845 -69.00948 22915 ft 388 kts 96°
2026-04-29 23:51 10.54618 -68.98214 22919 ft 388 kts 96°
2026-04-29 23:51 10.54393 -68.95524 22928 ft 388 kts 96°
2026-04-29 23:52 10.54188 -68.92785 22922 ft 389 kts 95°
2026-04-29 23:52 10.54003 -68.90045 22926 ft 389 kts 95°
2026-04-29 23:52 10.53824 -68.87300 22916 ft 389 kts 95°
2026-04-29 23:52 10.53646 -68.84560 22917 ft 389 kts 95°
2026-04-29 23:53 10.53466 -68.81813 22922 ft 389 kts 95°
2026-04-29 23:53 10.53285 -68.79075 22920 ft 389 kts 95°
2026-04-29 23:53 10.53101 -68.76332 22921 ft 389 kts 95°
2026-04-29 23:53 10.52917 -68.73592 22921 ft 389 kts 95°
2026-04-29 23:54 10.52735 -68.70893 22920 ft 389 kts 95°
2026-04-29 23:54 10.52549 -68.68152 22921 ft 389 kts 95°
2026-04-29 23:54 10.52364 -68.65414 22919 ft 388 kts 95°
2026-04-29 23:54 10.52178 -68.62678 22919 ft 388 kts 95°
2026-04-29 23:55 10.51991 -68.59942 22925 ft 388 kts 95°
2026-04-29 23:55 10.51804 -68.57201 22919 ft 389 kts 95°
2026-04-29 23:55 10.51617 -68.54459 22914 ft 389 kts 95°
2026-04-29 23:55 10.51430 -68.51723 22918 ft 389 kts 95°
2026-04-29 23:56 10.51243 -68.48984 22917 ft 388 kts 95°
2026-04-29 23:56 10.51094 -68.46791 22899 ft 382 kts 95°
2026-04-29 23:56 10.50930 -68.44386 22908 ft 379 kts 95°
2026-04-29 23:56 10.50748 -68.41729 22909 ft 375 kts 95°
2026-04-29 23:57 10.50566 -68.39086 22917 ft 375 kts 95°
2026-04-29 23:57 10.50384 -68.36446 22731 ft 378 kts 95°
2026-04-29 23:57 10.50200 -68.33778 22377 ft 376 kts 95°
2026-04-29 23:57 10.50017 -68.31128 21931 ft 374 kts 95°
2026-04-29 23:58 10.49836 -68.28505 21457 ft 371 kts 95°
2026-04-29 23:58 10.49659 -68.25936 20991 ft 368 kts 95°
2026-04-29 23:58 10.49481 -68.23354 20531 ft 365 kts 95°
2026-04-29 23:58 10.49303 -68.20796 20069 ft 362 kts 95°
2026-04-29 23:59 10.49127 -68.18256 19612 ft 359 kts 95°
2026-04-29 23:59 10.48952 -68.15730 19137 ft 357 kts 95°
2026-04-29 23:59 10.48778 -68.13230 18671 ft 356 kts 94°
2026-04-29 23:59 10.48604 -68.10726 18194 ft 354 kts 94°
2026-04-30 00:00 10.48450 -68.08238 17673 ft 352 kts 91°
2026-04-30 00:00 10.48766 -68.05789 17244 ft 348 kts 78°
2026-04-30 00:00 10.49326 -68.03442 16777 ft 345 kts 77°
2026-04-30 00:00 10.49919 -68.01089 16315 ft 342 kts 76°
2026-04-30 00:01 10.50507 -67.98758 15859 ft 339 kts 77°
2026-04-30 00:01 10.51082 -67.96440 15409 ft 337 kts 77°
2026-04-30 00:01 10.51644 -67.94138 14960 ft 334 kts 77°
2026-04-30 00:01 10.52196 -67.91853 14515 ft 332 kts 77°
2026-04-30 00:02 10.52741 -67.89577 14054 ft 331 kts 77°
2026-04-30 00:02 10.53281 -67.87317 13587 ft 329 kts 77°
2026-04-30 00:02 10.53816 -67.85067 13097 ft 326 kts 77°
2026-04-30 00:02 10.54337 -67.82880 12619 ft 318 kts 77°
2026-04-30 00:03 10.54846 -67.80738 12176 ft 306 kts 77°
2026-04-30 00:03 10.55338 -67.78667 11754 ft 296 kts 77°
2026-04-30 00:03 10.55814 -67.76665 11349 ft 287 kts 77°
2026-04-30 00:03 10.56277 -67.74712 11026 ft 284 kts 77°
2026-04-30 00:04 10.56746 -67.72735 10642 ft 292 kts 77°
2026-04-30 00:04 10.57227 -67.70703 10331 ft 297 kts 77°
2026-04-30 00:04 10.57706 -67.68685 10146 ft 290 kts 77°
2026-04-30 00:04 10.58158 -67.66758 10006 ft 279 kts 79°
2026-04-30 00:05 10.58390 -67.64814 9692 ft 275 kts 87°
2026-04-30 00:05 10.58452 -67.62882 9387 ft 272 kts 89°
2026-04-30 00:05 10.58484 -67.60974 9086 ft 269 kts 89°
2026-04-30 00:05 10.58518 -67.59076 8794 ft 269 kts 89°
2026-04-30 00:06 10.58560 -67.57181 8498 ft 269 kts 89°
2026-04-30 00:06 10.58609 -67.55274 8200 ft 269 kts 89°
2026-04-30 00:06 10.58663 -67.53373 7903 ft 269 kts 89°
2026-04-30 00:06 10.58720 -67.51468 7612 ft 270 kts 90°
2026-04-30 00:07 10.58780 -67.49563 7311 ft 270 kts 90°
2026-04-30 00:07 10.58840 -67.47679 7016 ft 271 kts 90°
2026-04-30 00:07 10.58903 -67.45767 6720 ft 271 kts 90°
2026-04-30 00:07 10.58965 -67.43854 6422 ft 271 kts 90°
2026-04-30 00:08 10.59028 -67.41939 6109 ft 271 kts 90°
2026-04-30 00:08 10.59091 -67.40030 5788 ft 269 kts 90°
2026-04-30 00:08 10.59154 -67.38150 5478 ft 262 kts 89°
2026-04-30 00:08 10.59214 -67.36337 5191 ft 252 kts 89°
2026-04-30 00:09 10.59271 -67.34605 4936 ft 238 kts 89°
2026-04-30 00:09 10.59325 -67.32970 4664 ft 226 kts 89°
2026-04-30 00:09 10.59376 -67.31422 4415 ft 218 kts 89°
2026-04-30 00:09 10.59425 -67.29913 4172 ft 209 kts 89°
2026-04-30 00:10 10.59483 -67.28485 3974 ft 196 kts 86°
2026-04-30 00:10 10.59598 -67.27186 3943 ft 177 kts 85°
2026-04-30 00:10 10.59714 -67.25965 3936 ft 171 kts 85°
2026-04-30 00:10 10.59827 -67.24763 3942 ft 171 kts 85°
2026-04-30 00:11 10.59938 -67.23562 3942 ft 170 kts 85°
2026-04-30 00:11 10.60047 -67.22378 3941 ft 167 kts 85°
2026-04-30 00:11 10.60155 -67.21206 3900 ft 168 kts 85°
2026-04-30 00:11 10.60223 -67.20005 3838 ft 170 kts 88°
2026-04-30 00:12 10.60265 -67.18770 3622 ft 175 kts 88°
2026-04-30 00:12 10.60305 -67.17556 3378 ft 172 kts 88°
2026-04-30 00:12 10.60345 -67.16363 3165 ft 165 kts 88°
2026-04-30 00:12 10.60384 -67.15222 2945 ft 159 kts 88°
2026-04-30 00:13 10.60421 -67.14145 2758 ft 144 kts 88°
2026-04-30 00:13 10.60455 -67.13148 2578 ft 137 kts 89°
2026-04-30 00:13 10.60488 -67.12191 2392 ft 139 kts 89°
2026-04-30 00:13 10.60522 -67.11202 2201 ft 140 kts 89°
2026-04-30 00:14 10.60557 -67.10215 2008 ft 140 kts 88°
2026-04-30 00:14 10.60592 -67.09217 1814 ft 144 kts 88°
2026-04-30 00:14 10.60602 -67.08229 1664 ft 138 kts 94°
2026-04-30 00:14 10.60538 -67.07262 1432 ft 136 kts 97°
2026-04-30 00:15 10.60399 -67.06315 1198 ft 137 kts 101°
2026-04-30 00:15 10.60185 -67.05391 1033 ft 132 kts 99°
2026-04-30 00:15 10.60132 -67.04453 906 ft 135 kts 89°
2026-04-30 00:15 10.60185 -67.03497 744 ft 136 kts 89°
2026-04-30 00:16 10.60162 -67.02543 548 ft 134 kts 91°
2026-04-30 00:16 10.60215 -67.01597 342 ft 133 kts 86°
2026-04-30 00:16 10.60234 -67.00678 222 ft 123 kts 90°
2026-04-30 00:16 10.60252 -66.99995 222 ft 68 kts 88°
2026-04-30 00:17 10.60261 -66.99710 208 ft 23 kts 93°
2026-04-30 00:17 10.60187 -66.99669 207 ft 3 kts 180°
2026-04-30 00:19 10.60156 -66.99685 209 ft 8 kts 229°
2026-04-30 00:19 10.60140 -66.99737 211 ft 8 kts 266°
2026-04-30 00:19 10.60137 -66.99793 214 ft 8 kts 266°
2026-04-30 00:19 10.60136 -66.99846 223 ft 7 kts 269°
2026-04-30 00:20 10.60124 -66.99895 217 ft 7 kts 232°
2026-04-30 00:20 10.60072 -66.99914 221 ft 9 kts 182°
2026-04-30 00:20 10.60007 -66.99914 218 ft 9 kts 179°
2026-04-30 00:20 10.59945 -66.99914 218 ft 9 kts 188°
2026-04-30 00:21 10.59915 -66.99962 219 ft 9 kts 262°
2026-04-30 00:21 10.59912 -67.00023 220 ft 8 kts 268°
2026-04-30 00:21 10.59907 -67.00072 220 ft 5 kts 244°
2026-04-30 00:21 10.59888 -67.00079 220 ft 0 kts 180°
2026-04-30 00:22 10.59884 -67.00079 220 ft 4 kts 180°
2026-04-30 00:22 10.59850 -67.00078 220 ft 5 kts 178°
2026-04-30 00:22 10.59829 -67.00077 220 ft 0 kts 178°